Weather History for Greensboro, NC

Change the Weather History Date:

Tuesday, October 7, 2014

  Actual Average Record
Temperature  
Mean Temperature 67 °F 62 °F  
Max Temperature 77 °F 73 °F 92 °F (1951)
Min Temperature 56 °F 52 °F 33 °F (1935)
Degree Days  
Heating Degree Days 0 4  
Month to date heating degree days 28 25  
Since 1 July heating degree days 45 56  
Cooling Degree Days 2 2  
Month to date cooling degree days 18 15  
Year to date cooling degree days 1470 1462  
Growing Degree Days 16 (Base 50)    
Moisture  
Dew Point 53 °F    
Average Humidity 68    
Maximum Humidity 86    
Minimum Humidity 49    
Precipitation  
Precipitation T in 0.10 in 1.84 in (1965)
Month to date precipitation 0.14 0.71  
Year to date precipitation 28.95 33.69  
Sea Level Pressure  
Sea Level Pressure 30.02 in    
Wind  
Wind Speed 11 mph (SSW)    
Max Wind Speed 18 mph    
Max Gust Speed 26 mph    
Visibility 10 miles    
Events      
T = Trace of Precipitation, MM = Missing Value Source: NWS Daily Summary

Daily Weather History Graph

Daily Weather History Graph

Search for Another Location

Airport:

Trip Planner

Search our weather history database for the weather conditions in past years. The results will help you decide how hot, cold, wet, or windy it might be!

Date:

Astronomy

Oct. 07, 2014 Rise Set
Actual Time 7:19 AM EDT 6:54 PM EDT
Civil Twilight 6:54 AM EDT 7:20 PM EDT
Nautical Twilight 6:24 AM EDT 7:50 PM EDT
Astronomical Twilight 5:54 AM EDT 8:19 PM EDT
Moon 6:28 PM EDT (10/7) 6:16 AM EDT (10/7)
Length of Visible Light 12h 26m
Length of Day
11h 35m
Waxing Gibbous, 99% of the Moon is Illuminated
Oct 7
Waxing Gibbous
Oct 8
Full
Oct 15
Last Quarter
Oct 23
New
Oct 30
First Quarter

Hourly Weather History & Observations

Time (EDT) Temp. Dew Point Humidity Pressure Visibility Wind Dir Wind Speed Gust Speed Precip Events Conditions
12:54 AM 61.0 °F 48.0 °F 62% 30.03 in 10.0 mi South 10.4 mph - N/A   Mostly Cloudy
1:54 AM 61.0 °F 48.0 °F 62% 30.04 in 10.0 mi SSW 8.1 mph - N/A   Overcast
2:54 AM 60.1 °F 48.9 °F 67% 30.05 in 10.0 mi South 5.8 mph - N/A   Overcast
3:54 AM 59.0 °F 50.0 °F 72% 30.06 in 10.0 mi SSW 5.8 mph - N/A   Overcast
4:54 AM 59.0 °F 50.0 °F 72% 30.06 in 10.0 mi SSW 4.6 mph - N/A   Overcast
5:54 AM 55.9 °F 51.1 °F 84% 30.06 in 10.0 mi South 4.6 mph - N/A   Mostly Cloudy
6:54 AM 57.0 °F 51.1 °F 81% 30.06 in 10.0 mi South 6.9 mph - N/A   Mostly Cloudy
7:54 AM 57.0 °F 52.0 °F 83% 30.06 in 10.0 mi South 6.9 mph - N/A   Mostly Cloudy
8:54 AM 60.1 °F 53.1 °F 78% 30.09 in 10.0 mi SW 10.4 mph - N/A   Mostly Cloudy
9:54 AM 61.0 °F 53.1 °F 75% 30.11 in 10.0 mi WSW 10.4 mph - 0.00 in   Mostly Cloudy
10:54 AM 63.0 °F 54.0 °F 72% 30.09 in 10.0 mi SW 10.4 mph - 0.00 in   Mostly Cloudy
11:54 AM 66.9 °F 54.0 °F 63% 30.06 in 10.0 mi SW 12.7 mph 17.3 mph N/A   Mostly Cloudy
12:54 PM 72.0 °F 54.0 °F 53% 30.04 in 10.0 mi WSW 11.5 mph 16.1 mph N/A   Mostly Cloudy
1:54 PM 73.0 °F 54.0 °F 51% 30.00 in 10.0 mi SSW 12.7 mph - N/A   Mostly Cloudy
2:54 PM 75.9 °F 55.0 °F 48% 29.97 in 10.0 mi SW 17.3 mph 26.5 mph N/A   Mostly Cloudy
3:54 PM 75.0 °F 55.0 °F 50% 29.97 in 10.0 mi SSW 16.1 mph 23.0 mph N/A   Mostly Cloudy
4:54 PM 73.4 °F 53.6 °F 50% 29.99 in 10.0 mi SW 13.8 mph - N/A   Mostly Cloudy
5:54 PM 73.4 °F 53.6 °F 50% 29.98 in 10.0 mi South 15.0 mph 20.7 mph N/A   Mostly Cloudy
6:54 PM 71.1 °F 54.0 °F 55% 29.96 in 10.0 mi SSW 10.4 mph 20.7 mph N/A   Mostly Cloudy
7:54 PM 70.0 °F 53.1 °F 55% 29.96 in 10.0 mi SSW 11.5 mph - N/A   Mostly Cloudy
8:54 PM 68.0 °F 54.0 °F 61% 29.97 in 10.0 mi South 11.5 mph - N/A   Mostly Cloudy
9:54 PM 69.1 °F 55.0 °F 61% 29.96 in 10.0 mi SSW 16.1 mph 23.0 mph N/A   Mostly Cloudy
10:54 PM 66.9 °F 55.9 °F 68% 29.98 in 10.0 mi SSW 9.2 mph - N/A   Scattered Clouds
11:54 PM 69.1 °F 57.0 °F 65% 29.98 in 10.0 mi SW 13.8 mph 19.6 mph N/A   Mostly Cloudy